"datetime","temp","dp","rain_mm","uv","solar","mb","wind_mph","gust_mph","windchill","rh"
"2021-04-22 00:00:00",4.4,1.6,0.0,0.0,0,1023.3,1,2,"",82
"2021-04-22 00:01:00",4.2,1.4,0.0,0.0,0,1023.4,1,2,"",82
"2021-04-22 00:02:00",4.2,1.4,0.0,0.0,0,1023.3,0,2,"",82
"2021-04-22 00:03:00",4.1,1.5,0.0,0.0,0,1023.4,1,2,"",83
"2021-04-22 00:04:00",4.1,1.5,0.0,0.0,0,1023.3,0,1,"",83
"2021-04-22 00:05:00",4.0,1.2,0.0,0.0,0,1023.3,1,2,"",82
"2021-04-22 00:06:00",3.9,1.3,0.0,0.0,0,1023.3,1,2,"",83
"2021-04-22 00:07:00",4.1,1.5,0.0,0.0,0,1023.3,1,1,"",83
"2021-04-22 00:08:00",4.0,1.4,0.0,0.0,0,1023.3,1,2,"",83
"2021-04-22 00:09:00",3.9,1.3,0.0,0.0,0,1023.3,2,3,"",83
"2021-04-22 00:10:00",3.8,1.2,0.0,0.0,0,1023.3,1,2,"",83
"2021-04-22 00:11:00",3.8,1.2,0.0,0.0,0,1023.3,1,2,"",83
"2021-04-22 00:12:00",3.8,1.3,0.0,0.0,0,1023.3,1,2,"",84
"2021-04-22 00:13:00",3.9,1.4,0.0,0.0,0,1023.3,2,3,"",84
"2021-04-22 00:14:00",3.9,1.3,0.0,0.0,0,1023.3,2,3,"",83
"2021-04-22 00:15:00",3.8,1.2,0.0,0.0,0,1023.3,2,3,"",83
"2021-04-22 00:16:00",3.8,1.3,0.0,0.0,0,1023.3,1,2,"",84
"2021-04-22 00:17:00",3.8,1.3,0.0,0.0,0,1023.3,1,3,"",84
"2021-04-22 00:18:00",3.8,1.3,0.0,0.0,0,1023.4,1,3,"",84
"2021-04-22 00:19:00",3.8,1.3,0.0,0.0,0,1023.3,1,2,"",84
"2021-04-22 00:20:00",3.8,1.3,0.0,0.0,0,1023.3,2,3,"",84
"2021-04-22 00:21:00",3.8,1.3,0.0,0.0,0,1023.3,1,2,"",84
"2021-04-22 00:22:00",3.8,1.3,0.0,0.0,0,1023.4,1,1,"",84
"2021-04-22 00:23:00",3.8,1.3,0.0,0.0,0,1023.4,1,2,"",84
"2021-04-22 00:24:00",3.8,1.3,0.0,0.0,0,1023.4,1,2,"",84
"2021-04-22 00:25:00",3.8,1.3,0.0,0.0,0,1023.3,1,2,"",84
"2021-04-22 00:26:00",3.8,1.3,0.0,0.0,0,1023.3,1,3,"",84
"2021-04-22 00:27:00",3.8,1.3,0.0,0.0,0,1023.3,1,2,"",84
"2021-04-22 00:28:00",3.8,1.3,0.0,0.0,0,1023.3,1,2,"",84
"2021-04-22 00:29:00",3.8,1.3,0.0,0.0,0,1023.4,1,2,"",84
"2021-04-22 00:30:00",3.9,1.4,0.0,0.0,0,1023.3,1,1,"",84
"2021-04-22 00:31:00",3.9,1.4,0.0,0.0,0,1023.3,1,2,"",84
"2021-04-22 00:32:00",3.8,1.3,0.0,0.0,0,1023.3,1,2,"",84
"2021-04-22 00:33:00",3.7,1.2,0.0,0.0,0,1023.4,1,2,"",84
"2021-04-22 00:34:00",3.7,1.2,0.0,0.0,0,1023.4,1,3,"",84
"2021-04-22 00:35:00",3.7,1.2,0.0,0.0,0,1023.4,1,2,"",84
"2021-04-22 00:36:00",3.6,1.1,0.0,0.0,0,1023.5,1,2,"",84
"2021-04-22 00:37:00",3.6,1.1,0.0,0.0,0,1023.5,1,2,"",84
"2021-04-22 00:38:00",3.5,1.1,0.0,0.0,0,1023.5,1,2,"",84
"2021-04-22 00:39:00",3.5,1.2,0.0,0.0,0,1023.5,1,2,"",85
"2021-04-22 00:40:00",3.6,1.3,0.0,0.0,0,1023.5,1,2,"",85
"2021-04-22 00:41:00",3.6,1.3,0.0,0.0,0,1023.5,2,3,"",85
"2021-04-22 00:42:00",3.5,1.1,0.0,0.0,0,1023.5,1,2,"",84
"2021-04-22 00:43:00",3.4,1.0,0.0,0.0,0,1023.5,1,2,"",84
"2021-04-22 00:44:00",3.4,1.0,0.0,0.0,0,1023.5,1,3,"",84
"2021-04-22 00:45:00",3.4,1.1,0.0,0.0,0,1023.5,2,4,1.7,85
"2021-04-22 00:46:00",3.4,1.0,0.0,0.0,0,1023.5,1,2,"",84
"2021-04-22 00:47:00",3.4,1.0,0.0,0.0,0,1023.5,1,2,"",84
"2021-04-22 00:48:00",3.4,1.1,0.0,0.0,0,1023.5,1,2,"",85
"2021-04-22 00:49:00",3.3,0.9,0.0,0.0,0,1023.5,2,4,1.6,84
"2021-04-22 00:50:00",3.3,0.9,0.0,0.0,0,1023.5,2,3,"",84
"2021-04-22 00:51:00",3.2,0.9,0.0,0.0,0,1023.5,1,2,"",85
"2021-04-22 00:52:00",3.2,0.9,0.0,0.0,0,1023.6,1,2,"",85
"2021-04-22 00:53:00",3.1,0.8,0.0,0.0,0,1023.5,1,2,"",85
"2021-04-22 00:54:00",3.2,1.1,0.0,0.0,0,1023.6,1,2,"",86
"2021-04-22 00:55:00",3.2,1.1,0.0,0.0,0,1023.6,1,2,"",86
"2021-04-22 00:56:00",3.2,1.1,0.0,0.0,0,1023.6,1,2,"",86
"2021-04-22 00:57:00",3.2,0.9,0.0,0.0,0,1023.5,1,2,"",85
"2021-04-22 00:58:00",3.1,0.8,0.0,0.0,0,1023.5,1,2,"",85
"2021-04-22 00:59:00",3.1,0.8,0.0,0.0,0,1023.6,1,2,"",85
"2021-04-22 01:00:00",3.1,1.0,0.0,0.0,0,1023.6,1,3,"",86
"2021-04-22 01:01:00",3.2,1.1,0.0,0.0,0,1023.6,1,2,"",86
"2021-04-22 01:02:00",3.2,0.9,0.0,0.0,0,1023.5,1,2,"",85
"2021-04-22 01:03:00",3.2,0.9,0.0,0.0,0,1023.6,2,5,1.0,85
"2021-04-22 01:04:00",3.3,1.0,0.0,0.0,0,1023.6,1,3,"",85
"2021-04-22 01:05:00",3.3,1.0,0.0,0.0,0,1023.6,1,3,"",85
"2021-04-22 01:06:00",3.2,0.9,0.0,0.0,0,1023.6,2,5,1.0,85
"2021-04-22 01:07:00",3.2,0.9,0.0,0.0,0,1023.6,2,4,1.5,85
"2021-04-22 01:08:00",3.2,0.9,0.0,0.0,0,1023.6,2,4,1.5,85
"2021-04-22 01:09:00",3.2,0.9,0.0,0.0,0,1023.6,1,2,"",85
"2021-04-22 01:10:00",3.2,0.9,0.0,0.0,0,1023.6,2,4,1.5,85
"2021-04-22 01:11:00",3.2,0.9,0.0,0.0,0,1023.7,2,4,1.5,85
"2021-04-22 01:12:00",3.2,0.9,0.0,0.0,0,1023.6,2,3,"",85
"2021-04-22 01:13:00",3.3,1.0,0.0,0.0,0,1023.7,1,2,"",85
"2021-04-22 01:14:00",3.3,1.0,0.0,0.0,0,1023.7,1,2,"",85
"2021-04-22 01:15:00",3.4,1.1,0.0,0.0,0,1023.7,1,2,"",85
"2021-04-22 01:16:00",3.4,1.0,0.0,0.0,0,1023.7,1,2,"",84
"2021-04-22 01:17:00",3.3,0.9,0.0,0.0,0,1023.7,1,2,"",84
"2021-04-22 01:18:00",3.3,0.9,0.0,0.0,0,1023.7,2,3,"",84
"2021-04-22 01:19:00",3.2,0.8,0.0,0.0,0,1023.7,1,3,"",84
"2021-04-22 01:20:00",3.2,0.8,0.0,0.0,0,1023.7,1,3,"",84
"2021-04-22 01:21:00",3.1,0.7,0.0,0.0,0,1023.7,1,2,"",84
"2021-04-22 01:22:00",3.2,0.9,0.0,0.0,0,1023.7,1,2,"",85
"2021-04-22 01:23:00",3.2,0.9,0.0,0.0,0,1023.7,2,2,"",85
"2021-04-22 01:24:00",3.2,0.8,0.0,0.0,0,1023.8,1,2,"",84
"2021-04-22 01:25:00",3.2,0.8,0.0,0.0,0,1023.7,1,2,"",84
"2021-04-22 01:26:00",3.1,0.7,0.0,0.0,0,1023.7,2,3,"",84
"2021-04-22 01:27:00",3.1,0.7,0.0,0.0,0,1023.8,1,2,"",84
"2021-04-22 01:28:00",2.9,0.5,0.0,0.0,0,1023.7,1,2,"",84
"2021-04-22 01:29:00",2.9,0.6,0.0,0.0,0,1023.7,2,3,"",85
"2021-04-22 01:30:00",2.9,0.6,0.0,0.0,0,1023.7,2,2,"",85
"2021-04-22 01:31:00",2.9,0.5,0.0,0.0,0,1023.7,2,6,0.4,84
"2021-04-22 01:32:00",2.8,0.4,0.0,0.0,0,1023.8,1,2,"",84
"2021-04-22 01:33:00",2.8,0.5,0.0,0.0,0,1023.8,2,3,"",85
"2021-04-22 01:34:00",2.8,0.5,0.0,0.0,0,1023.8,1,3,"",85
"2021-04-22 01:35:00",2.8,0.5,0.0,0.0,0,1023.8,1,2,"",85
"2021-04-22 01:36:00",2.8,0.5,0.0,0.0,0,1023.8,1,3,"",85
"2021-04-22 01:37:00",2.9,0.6,0.0,0.0,0,1023.8,1,2,"",85
"2021-04-22 01:38:00",3.0,0.7,0.0,0.0,0,1023.9,1,2,"",85
"2021-04-22 01:39:00",3.0,0.6,0.0,0.0,0,1023.9,1,2,"",84
"2021-04-22 01:40:00",2.9,0.5,0.0,0.0,0,1023.9,1,4,1.2,84
"2021-04-22 01:41:00",2.9,0.6,0.0,0.0,0,1023.9,1,2,"",85
"2021-04-22 01:42:00",3.0,0.7,0.0,0.0,0,1023.9,2,3,"",85
"2021-04-22 01:43:00",2.9,0.5,0.0,0.0,0,1023.9,1,2,"",84
"2021-04-22 01:44:00",2.9,0.5,0.0,0.0,0,1023.9,0,1,"",84
"2021-04-22 01:45:00",2.9,0.6,0.0,0.0,0,1023.9,1,2,"",85
"2021-04-22 01:46:00",2.9,0.6,0.0,0.0,0,1023.9,1,2,"",85
"2021-04-22 01:47:00",2.9,0.6,0.0,0.0,0,1023.9,1,2,"",85
"2021-04-22 01:48:00",2.9,0.6,0.0,0.0,0,1023.9,2,4,1.2,85
"2021-04-22 01:49:00",2.9,0.6,0.0,0.0,0,1023.9,2,2,"",85
"2021-04-22 01:50:00",2.9,0.5,0.0,0.0,0,1024.0,0,1,"",84
"2021-04-22 01:51:00",2.9,0.5,0.0,0.0,0,1023.9,1,2,"",84
"2021-04-22 01:52:00",2.9,0.6,0.0,0.0,0,1023.9,2,3,"",85
"2021-04-22 01:53:00",2.9,0.5,0.0,0.0,0,1023.9,1,2,"",84
"2021-04-22 01:54:00",2.9,0.5,0.0,0.0,0,1023.9,1,1,"",84
"2021-04-22 01:55:00",2.8,0.5,0.0,0.0,0,1023.9,0,1,"",85
"2021-04-22 01:56:00",2.8,0.5,0.0,0.0,0,1023.9,1,1,"",85
"2021-04-22 01:57:00",2.8,0.5,0.0,0.0,0,1023.9,1,2,"",85
"2021-04-22 01:58:00",2.8,0.5,0.0,0.0,0,1023.9,1,1,"",85
"2021-04-22 01:59:00",2.7,0.4,0.0,0.0,0,1023.9,0,1,"",85
"2021-04-22 02:00:00",2.7,0.4,0.0,0.0,0,1023.9,0,1,"",85
"2021-04-22 02:01:00",2.6,0.3,0.0,0.0,0,1023.9,0,1,"",85
"2021-04-22 02:02:00",2.6,0.3,0.0,0.0,0,1023.9,1,1,"",85
"2021-04-22 02:03:00",2.5,0.2,0.0,0.0,0,1023.9,1,1,"",85
"2021-04-22 02:04:00",2.5,0.4,0.0,0.0,0,1023.9,1,3,"",86
"2021-04-22 02:05:00",2.5,0.4,0.0,0.0,0,1023.9,0,1,"",86
"2021-04-22 02:06:00",2.6,0.5,0.0,0.0,0,1023.9,0,1,"",86
"2021-04-22 02:07:00",2.5,0.2,0.0,0.0,0,1023.9,0,1,"",85
"2021-04-22 02:08:00",2.4,0.1,0.0,0.0,0,1023.9,1,3,"",85
"2021-04-22 02:09:00",2.3,0.0,0.0,0.0,0,1023.8,1,2,"",85
"2021-04-22 02:10:00",2.3,0.2,0.0,0.0,0,1023.9,1,2,"",86
"2021-04-22 02:11:00",2.3,0.2,0.0,0.0,0,1023.8,1,2,"",86
"2021-04-22 02:12:00",2.3,0.2,0.0,0.0,0,1023.8,1,2,"",86
"2021-04-22 02:13:00",2.3,0.2,0.0,0.0,0,1023.8,1,2,"",86
"2021-04-22 02:14:00",2.3,0.2,0.0,0.0,0,1023.8,1,2,"",86
"2021-04-22 02:15:00",2.3,0.2,0.0,0.0,0,1023.8,1,2,"",86
"2021-04-22 02:16:00",2.3,0.2,0.0,0.0,0,1023.8,1,2,"",86
"2021-04-22 02:17:00",2.2,"-0.1",0.0,0.0,0,1023.8,1,1,"",85
"2021-04-22 02:18:00",2.2,0.1,0.0,0.0,0,1023.8,1,2,"",86
"2021-04-22 02:19:00",2.1,"-0.2",0.0,0.0,0,1023.8,1,1,"",85
"2021-04-22 02:20:00",2.1,0.0,0.0,0.0,0,1023.9,1,2,"",86
"2021-04-22 02:21:00",2.2,0.1,0.0,0.0,0,1023.8,1,2,"",86
"2021-04-22 02:22:00",2.2,0.1,0.0,0.0,0,1023.8,1,2,"",86
"2021-04-22 02:23:00",2.1,"-0.2",0.0,0.0,0,1023.8,1,2,"",85
"2021-04-22 02:24:00",1.9,"-0.2",0.0,0.0,0,1023.8,1,2,"",86
"2021-04-22 02:25:00",1.8,"-0.3",0.0,0.0,0,1023.9,1,2,"",86
"2021-04-22 02:26:00",1.8,"-0.1",0.0,0.0,0,1023.9,1,1,"",87
"2021-04-22 02:27:00",1.8,"-0.1",0.0,0.0,0,1023.9,1,2,"",87
"2021-04-22 02:28:00",1.7,"-0.2",0.0,0.0,0,1023.9,0,1,"",87
"2021-04-22 02:29:00",1.7,"-0.2",0.0,0.0,0,1023.9,0,2,"",87
"2021-04-22 02:30:00",1.6,"-0.3",0.0,0.0,0,1023.9,1,1,"",87
"2021-04-22 02:31:00",1.6,"-0.3",0.0,0.0,0,1023.9,1,1,"",87
"2021-04-22 02:32:00",1.6,"-0.3",0.0,0.0,0,1023.9,1,2,"",87
"2021-04-22 02:33:00",1.6,"-0.3",0.0,0.0,0,1023.9,1,2,"",87
"2021-04-22 02:34:00",1.6,"-0.3",0.0,0.0,0,1023.9,1,1,"",87
"2021-04-22 02:35:00",1.5,"-0.4",0.0,0.0,0,1023.9,0,1,"",87
"2021-04-22 02:36:00",1.5,"-0.3",0.0,0.0,0,1023.9,1,2,"",88
"2021-04-22 02:37:00",1.5,"-0.3",0.0,0.0,0,1023.9,1,1,"",88
"2021-04-22 02:38:00",1.5,"-0.3",0.0,0.0,0,1023.9,1,2,"",88
"2021-04-22 02:39:00",1.4,"-0.4",0.0,0.0,0,1023.9,1,1,"",88
"2021-04-22 02:40:00",1.4,"-0.4",0.0,0.0,0,1023.9,0,1,"",88
"2021-04-22 02:41:00",1.4,"-0.4",0.0,0.0,0,1023.9,0,1,"",88
"2021-04-22 02:42:00",1.4,"-0.4",0.0,0.0,0,1023.9,1,1,"",88
"2021-04-22 02:43:00",1.4,"-0.4",0.0,0.0,0,1023.9,1,2,"",88
"2021-04-22 02:44:00",1.4,"-0.4",0.0,0.0,0,1023.9,1,1,"",88
"2021-04-22 02:45:00",1.4,"-0.4",0.0,0.0,0,1023.9,1,2,"",88
"2021-04-22 02:46:00",1.4,"-0.4",0.0,0.0,0,1023.9,1,2,"",88
"2021-04-22 02:47:00",1.4,"-0.4",0.0,0.0,0,1023.9,1,1,"",88
"2021-04-22 02:48:00",1.3,"-0.5",0.0,0.0,0,1023.9,1,1,"",88
"2021-04-22 02:49:00",1.3,"-0.6",0.0,0.0,0,1023.9,1,2,"",87
"2021-04-22 02:50:00",1.3,"-0.5",0.0,0.0,0,1023.9,1,3,"",88
"2021-04-22 02:51:00",1.2,"-0.6",0.0,0.0,0,1023.9,1,3,"",88
"2021-04-22 02:52:00",1.2,"-0.6",0.0,0.0,0,1023.9,1,1,"",88
"2021-04-22 02:53:00",1.2,"-0.6",0.0,0.0,0,1023.9,0,1,"",88
"2021-04-22 02:54:00",1.2,"-0.6",0.0,0.0,0,1023.9,1,4,"-0.8",88
"2021-04-22 02:55:00",1.2,"-0.6",0.0,0.0,0,1023.9,0,1,"",88
"2021-04-22 02:56:00",1.2,"-0.4",0.0,0.0,0,1023.9,1,3,"",89
"2021-04-22 02:57:00",1.2,"-0.6",0.0,0.0,0,1024.0,0,2,"",88
"2021-04-22 02:58:00",1.2,"-0.4",0.0,0.0,0,1024.0,1,2,"",89
"2021-04-22 02:59:00",1.2,"-0.4",0.0,0.0,0,1024.0,0,2,"",89
"2021-04-22 03:00:00",1.3,"-0.3",0.0,0.0,0,1024.0,1,2,"",89
"2021-04-22 03:01:00",1.3,"-0.3",0.0,0.0,0,1024.0,0,1,"",89
"2021-04-22 03:02:00",1.5,"-0.1",0.0,0.0,0,1024.0,1,2,"",89
"2021-04-22 03:03:00",1.4,"-0.4",0.0,0.0,0,1024.0,1,2,"",88
"2021-04-22 03:04:00",1.3,"-0.5",0.0,0.0,0,1024.0,1,2,"",88
"2021-04-22 03:05:00",1.3,"-0.5",0.0,0.0,0,1024.0,1,2,"",88
"2021-04-22 03:06:00",1.2,"-0.6",0.0,0.0,0,1024.0,0,1,"",88
"2021-04-22 03:07:00",1.2,"-0.6",0.0,0.0,0,1024.0,1,1,"",88
"2021-04-22 03:08:00",1.2,"-0.4",0.0,0.0,0,1024.0,0,1,"",89
"2021-04-22 03:09:00",1.1,"-0.5",0.0,0.0,0,1024.1,0,1,"",89
"2021-04-22 03:10:00",1.1,"-0.5",0.0,0.0,0,1024.1,1,2,"",89
"2021-04-22 03:11:00",1.1,"-0.5",0.0,0.0,0,1024.0,0,1,"",89
"2021-04-22 03:12:00",1.1,"-0.5",0.0,0.0,0,1024.0,0,1,"",89
"2021-04-22 03:13:00",1.1,"-0.5",0.0,0.0,0,1024.0,0,1,"",89
"2021-04-22 03:14:00",1.2,"-0.4",0.0,0.0,0,1024.1,0,1,"",89
"2021-04-22 03:15:00",1.2,"-0.4",0.0,0.0,0,1024.0,0,1,"",89
"2021-04-22 03:16:00",1.1,"-0.5",0.0,0.0,0,1024.0,0,1,"",89
"2021-04-22 03:17:00",1.2,"-0.4",0.0,0.0,0,1024.1,0,1,"",89
"2021-04-22 03:18:00",1.1,"-0.5",0.0,0.0,0,1024.0,0,1,"",89
"2021-04-22 03:19:00",1.0,"-0.6",0.0,0.0,0,1024.1,1,3,"",89
"2021-04-22 03:20:00",1.0,"-0.6",0.0,0.0,0,1024.1,1,2,"",89
"2021-04-22 03:21:00",0.9,"-0.7",0.0,0.0,0,1024.1,0,1,"",89
"2021-04-22 03:22:00",0.9,"-0.6",0.0,0.0,0,1024.1,1,2,"",90
"2021-04-22 03:23:00",1.0,"-0.5",0.0,0.0,0,1024.1,1,2,"",90
"2021-04-22 03:24:00",1.1,"-0.4",0.0,0.0,0,1024.1,1,1,"",90
"2021-04-22 03:25:00",1.1,"-0.4",0.0,0.0,0,1024.1,0,1,"",90
"2021-04-22 03:26:00",1.0,"-0.6",0.0,0.0,0,1024.1,0,1,"",89
"2021-04-22 03:27:00",0.9,"-0.7",0.0,0.0,0,1024.0,0,0,"",89
"2021-04-22 03:28:00",0.8,"-0.8",0.0,0.0,0,1024.1,1,2,"",89
"2021-04-22 03:29:00",0.8,"-0.8",0.0,0.0,0,1024.1,1,1,"",89
"2021-04-22 03:30:00",0.8,"-0.7",0.0,0.0,0,1024.1,1,1,"",90
"2021-04-22 03:31:00",0.8,"-0.7",0.0,0.0,0,1024.1,2,4,"-1.3",90
"2021-04-22 03:32:00",0.7,"-0.8",0.0,0.0,0,1024.1,1,1,"",90
"2021-04-22 03:33:00",0.7,"-0.8",0.0,0.0,0,1024.1,0,1,"",90
"2021-04-22 03:34:00",0.7,"-0.8",0.0,0.0,0,1024.1,0,1,"",90
"2021-04-22 03:35:00",0.7,"-0.8",0.0,0.0,0,1024.1,1,2,"",90
"2021-04-22 03:36:00",0.7,"-0.8",0.0,0.0,0,1024.1,1,1,"",90
"2021-04-22 03:37:00",0.8,"-0.7",0.0,0.0,0,1024.1,1,2,"",90
"2021-04-22 03:38:00",0.8,"-0.7",0.0,0.0,0,1024.1,1,1,"",90
"2021-04-22 03:39:00",0.8,"-0.7",0.0,0.0,0,1024.1,2,2,"",90
"2021-04-22 03:40:00",0.8,"-0.7",0.0,0.0,0,1024.1,1,2,"",90
"2021-04-22 03:41:00",0.8,"-0.7",0.0,0.0,0,1024.1,2,3,"",90
"2021-04-22 03:42:00",0.8,"-0.8",0.0,0.0,0,1024.1,1,3,"",89
"2021-04-22 03:43:00",0.8,"-0.8",0.0,0.0,0,1024.1,1,1,"",89
"2021-04-22 03:44:00",0.7,"-0.9",0.0,0.0,0,1024.1,1,1,"",89
"2021-04-22 03:45:00",0.6,"-1.0",0.0,0.0,0,1024.1,1,2,"",89
"2021-04-22 03:46:00",0.6,"-1.0",0.0,0.0,0,1024.1,1,1,"",89
"2021-04-22 03:47:00",0.6,"-1.0",0.0,0.0,0,1024.1,0,1,"",89
"2021-04-22 03:48:00",0.6,"-0.9",0.0,0.0,0,1024.1,0,1,"",90
"2021-04-22 03:49:00",0.6,"-0.9",0.0,0.0,0,1024.1,1,2,"",90
"2021-04-22 03:50:00",0.6,"-0.9",0.0,0.0,0,1024.1,1,1,"",90
"2021-04-22 03:51:00",0.6,"-0.9",0.0,0.0,0,1024.2,1,2,"",90
"2021-04-22 03:52:00",0.6,"-0.9",0.0,0.0,0,1024.2,1,2,"",90
"2021-04-22 03:53:00",0.5,"-1.0",0.0,0.0,0,1024.2,1,2,"",90
"2021-04-22 03:54:00",0.5,"-1.0",0.0,0.0,0,1024.2,1,1,"",90
"2021-04-22 03:55:00",0.6,"-0.9",0.0,0.0,0,1024.2,1,2,"",90
"2021-04-22 03:56:00",0.6,"-0.9",0.0,0.0,0,1024.2,1,1,"",90
"2021-04-22 03:57:00",0.6,"-0.9",0.0,0.0,0,1024.2,1,2,"",90
"2021-04-22 03:58:00",0.6,"-0.9",0.0,0.0,0,1024.2,1,1,"",90
"2021-04-22 03:59:00",0.5,"-1.1",0.0,0.0,0,1024.2,1,1,"",89
"2021-04-22 04:00:00",0.4,"-1.2",0.0,0.0,0,1024.2,0,1,"",89
"2021-04-22 04:01:00",0.4,"-1.0",0.0,0.0,0,1024.2,1,1,"",90
"2021-04-22 04:02:00",0.3,"-1.1",0.0,0.0,0,1024.2,1,2,"",90
"2021-04-22 04:03:00",0.3,"-1.1",0.0,0.0,0,1024.2,0,1,"",90
"2021-04-22 04:04:00",0.3,"-1.1",0.0,0.0,0,1024.2,1,1,"",90
"2021-04-22 04:05:00",0.3,"-1.0",0.0,0.0,0,1024.2,1,2,"",91
"2021-04-22 04:06:00",0.4,"-1.0",0.0,0.0,0,1024.2,1,2,"",90
"2021-04-22 04:07:00",0.4,"-1.0",0.0,0.0,0,1024.2,1,2,"",90
"2021-04-22 04:08:00",0.5,"-0.8",0.0,0.0,0,1024.2,1,2,"",91
"2021-04-22 04:09:00",0.5,"-1.0",0.0,0.0,0,1024.3,1,2,"",90
"2021-04-22 04:10:00",0.5,"-1.0",0.0,0.0,0,1024.2,1,2,"",90
"2021-04-22 04:11:00",0.5,"-1.0",0.0,0.0,0,1024.2,1,1,"",90
"2021-04-22 04:12:00",0.5,"-1.0",0.0,0.0,0,1024.2,1,1,"",90
"2021-04-22 04:13:00",0.4,"-1.0",0.0,0.0,0,1024.2,0,2,"",90
"2021-04-22 04:14:00",0.4,"-1.0",0.0,0.0,0,1024.2,1,2,"",90
"2021-04-22 04:15:00",0.4,"-1.0",0.0,0.0,0,1024.2,0,1,"",90
"2021-04-22 04:16:00",0.4,"-1.0",0.0,0.0,0,1024.2,0,1,"",90
"2021-04-22 04:17:00",0.4,"-1.0",0.0,0.0,0,1024.1,0,1,"",90
"2021-04-22 04:18:00",0.4,"-1.0",0.0,0.0,0,1024.2,0,1,"",90
"2021-04-22 04:19:00",0.4,"-1.0",0.0,0.0,0,1024.2,1,2,"",90
"2021-04-22 04:20:00",0.3,"-1.1",0.0,0.0,0,1024.2,1,2,"",90
"2021-04-22 04:21:00",0.3,"-1.1",0.0,0.0,0,1024.2,0,1,"",90
"2021-04-22 04:22:00",0.2,"-1.2",0.0,0.0,0,1024.2,0,0,"",90
"2021-04-22 04:23:00",0.2,"-1.2",0.0,0.0,0,1024.2,0,0,"",90
"2021-04-22 04:24:00",0.1,"-1.3",0.0,0.0,0,1024.3,0,0,"",90
"2021-04-22 04:25:00",0.1,"-1.3",0.0,0.0,0,1024.3,0,1,"",90
"2021-04-22 04:26:00",0.1,"-1.3",0.0,0.0,0,1024.3,0,1,"",90
"2021-04-22 04:27:00",0.1,"-1.2",0.0,0.0,0,1024.3,0,1,"",91
"2021-04-22 04:28:00",0.1,"-1.2",0.0,0.0,0,1024.3,0,0,"",91
"2021-04-22 04:29:00",0.1,"-1.2",0.0,0.0,0,1024.3,0,0,"",91
"2021-04-22 04:30:00",0.1,"-1.2",0.0,0.0,0,1024.3,0,1,"",91
"2021-04-22 04:31:00",0.1,"-1.2",0.0,0.0,0,1024.3,0,1,"",91
"2021-04-22 04:32:00",0.1,"-1.2",0.0,0.0,0,1024.3,0,1,"",91
"2021-04-22 04:33:00","-0.1","-1.4",0.0,0.0,0,1024.2,1,1,"",91
"2021-04-22 04:34:00",0.0,"-1.3",0.0,0.0,0,1024.2,1,1,"",91
"2021-04-22 04:35:00",0.1,"-1.2",0.0,0.0,0,1024.3,1,2,"",91
"2021-04-22 04:36:00",0.1,"-1.2",0.0,0.0,0,1024.3,1,2,"",91
"2021-04-22 04:37:00",0.2,"-1.1",0.0,0.0,0,1024.3,1,2,"",91
"2021-04-22 04:38:00",0.2,"-1.1",0.0,0.0,0,1024.3,1,2,"",91
"2021-04-22 04:39:00",0.2,"-1.2",0.0,0.0,0,1024.2,0,1,"",90
"2021-04-22 04:40:00",0.1,"-1.3",0.0,0.0,0,1024.2,1,1,"",90
"2021-04-22 04:41:00",0.1,"-1.3",0.0,0.0,0,1024.2,1,2,"",90
"2021-04-22 04:42:00",0.1,"-1.2",0.0,0.0,0,1024.2,1,2,"",91
"2021-04-22 04:43:00",0.2,"-1.1",0.0,0.0,0,1024.2,1,2,"",91
"2021-04-22 04:44:00",0.1,"-1.3",0.0,0.0,0,1024.2,1,2,"",90
"2021-04-22 04:45:00",0.1,"-1.3",0.0,0.0,0,1024.2,1,1,"",90
"2021-04-22 04:46:00",0.1,"-1.3",0.0,0.0,0,1024.2,1,2,"",90
"2021-04-22 04:47:00",0.0,"-1.4",0.0,0.0,0,1024.2,1,1,"",90
"2021-04-22 04:48:00","-0.1","-1.5",0.0,0.0,0,1024.3,0,1,"",90
"2021-04-22 04:49:00","-0.2","-1.6",0.0,0.0,0,1024.2,1,2,"",90
"2021-04-22 04:50:00","-0.2","-1.5",0.0,0.0,0,1024.2,0,1,"",91
"2021-04-22 04:51:00","-0.2","-1.6",0.0,0.0,0,1024.2,1,1,"",90
"2021-04-22 04:52:00","-0.2","-1.6",0.0,0.0,0,1024.2,0,1,"",90
"2021-04-22 04:53:00","-0.3","-1.7",0.0,0.0,0,1024.3,0,1,"",90
"2021-04-22 04:54:00","-0.3","-1.7",0.0,0.0,0,1024.2,0,1,"",90
"2021-04-22 04:55:00","-0.3","-1.6",0.0,0.0,0,1024.2,0,1,"",91
"2021-04-22 04:56:00","-0.4","-1.7",0.0,0.0,0,1024.3,0,1,"",91
"2021-04-22 04:57:00","-0.4","-1.7",0.0,0.0,0,1024.2,0,1,"",91
"2021-04-22 04:58:00","-0.3","-1.6",0.0,0.0,0,1024.3,1,1,"",91
"2021-04-22 04:59:00","-0.4","-1.7",0.0,0.0,0,1024.3,1,1,"",91
"2021-04-22 05:00:00","-0.4","-1.7",0.0,0.0,0,1024.3,0,1,"",91
"2021-04-22 05:01:00","-0.3","-1.6",0.0,0.0,0,1024.3,1,2,"",91
"2021-04-22 05:02:00","-0.3","-1.4",0.0,0.0,0,1024.3,1,1,"",92
"2021-04-22 05:03:00","-0.3","-1.4",0.0,0.0,0,1024.3,0,1,"",92
"2021-04-22 05:04:00","-0.3","-1.4",0.0,0.0,0,1024.3,1,1,"",92
"2021-04-22 05:05:00","-0.3","-1.4",0.0,0.0,0,1024.3,1,2,"",92
"2021-04-22 05:06:00","-0.2","-1.5",0.0,0.0,0,1024.4,1,2,"",91
"2021-04-22 05:07:00","-0.3","-1.6",0.0,0.0,0,1024.3,1,2,"",91
"2021-04-22 05:08:00","-0.4","-1.7",0.0,0.0,0,1024.3,1,1,"",91
"2021-04-22 05:09:00","-0.4","-1.7",0.0,0.0,0,1024.4,0,1,"",91
"2021-04-22 05:10:00","-0.4","-1.7",0.0,0.0,0,1024.4,0,1,"",91
"2021-04-22 05:11:00","-0.5","-1.8",0.0,0.0,0,1024.4,0,1,"",91
"2021-04-22 05:12:00","-0.5","-1.8",0.0,0.0,0,1024.4,1,1,"",91
"2021-04-22 05:13:00","-0.5","-1.8",0.0,0.0,0,1024.3,1,1,"",91
"2021-04-22 05:14:00","-0.5","-1.8",0.0,0.0,0,1024.3,1,2,"",91
"2021-04-22 05:15:00","-0.6","-1.9",0.0,0.0,0,1024.3,1,1,"",91
"2021-04-22 05:16:00","-0.6","-1.9",0.0,0.0,0,1024.3,1,1,"",91
"2021-04-22 05:17:00","-0.6","-1.9",0.0,0.0,0,1024.3,0,1,"",91
"2021-04-22 05:18:00","-0.7","-2.0",0.0,0.0,0,1024.3,0,1,"",91
"2021-04-22 05:19:00","-0.7","-2.0",0.0,0.0,0,1024.3,0,0,"",91
"2021-04-22 05:20:00","-0.7","-2.0",0.0,0.0,0,1024.3,0,1,"",91
"2021-04-22 05:21:00","-0.8","-2.1",0.0,0.0,0,1024.4,0,1,"",91
"2021-04-22 05:22:00","-0.8","-2.1",0.0,0.0,0,1024.4,1,1,"",91
"2021-04-22 05:23:00","-0.8","-1.9",0.0,0.0,0,1024.4,1,2,"",92
"2021-04-22 05:24:00","-0.8","-1.9",0.0,0.0,0,1024.4,1,1,"",92
"2021-04-22 05:25:00","-0.8","-1.9",0.0,0.0,0,1024.4,1,1,"",92
"2021-04-22 05:26:00","-0.8","-1.9",0.0,0.0,0,1024.4,1,1,"",92
"2021-04-22 05:27:00","-0.7","-1.8",0.0,0.0,0,1024.4,1,1,"",92
"2021-04-22 05:28:00","-0.8","-1.9",0.0,0.0,0,1024.4,1,1,"",92
"2021-04-22 05:29:00","-0.8","-1.9",0.0,0.0,0,1024.4,0,1,"",92
"2021-04-22 05:30:00","-0.8","-1.9",0.0,0.0,0,1024.4,0,1,"",92
"2021-04-22 05:31:00","-0.8","-1.9",0.0,0.0,0,1024.4,0,0,"",92
"2021-04-22 05:32:00","-0.8","-1.9",0.0,0.0,0,1024.4,0,1,"",92
"2021-04-22 05:33:00","-0.8","-1.9",0.0,0.0,0,1024.4,0,1,"",92
"2021-04-22 05:34:00","-0.8","-1.9",0.0,0.0,0,1024.4,0,1,"",92
"2021-04-22 05:35:00","-0.9","-2.0",0.0,0.0,0,1024.4,0,1,"",92
"2021-04-22 05:36:00","-0.9","-2.0",0.0,0.0,0,1024.4,0,0,"",92
"2021-04-22 05:37:00","-0.9","-2.0",0.0,0.0,0,1024.5,0,0,"",92
"2021-04-22 05:38:00","-0.8","-1.9",0.0,0.0,0,1024.4,0,1,"",92
"2021-04-22 05:39:00","-0.8","-1.9",0.0,0.0,0,1024.5,1,1,"",92
"2021-04-22 05:40:00","-0.8","-1.9",0.0,0.0,0,1024.5,1,2,"",92
"2021-04-22 05:41:00","-0.8","-1.9",0.0,0.0,0,1024.5,1,2,"",92
"2021-04-22 05:42:00","-0.8","-1.9",0.0,0.0,0,1024.5,1,2,"",92
"2021-04-22 05:43:00","-0.8","-1.9",0.0,0.0,0,1024.5,1,1,"",92
"2021-04-22 05:44:00","-0.8","-1.9",0.0,0.0,0,1024.6,0,1,"",92
"2021-04-22 05:45:00","-0.8","-1.9",0.0,0.0,0,1024.6,0,1,"",92
"2021-04-22 05:46:00","-0.8","-1.9",0.0,0.0,0,1024.6,0,0,"",92
"2021-04-22 05:47:00","-0.9","-2.0",0.0,0.0,0,1024.6,0,0,"",92
"2021-04-22 05:48:00","-0.9","-2.0",0.0,0.0,0,1024.6,0,1,"",92
"2021-04-22 05:49:00","-0.9","-2.0",0.0,0.0,0,1024.6,0,0,"",92
"2021-04-22 05:50:00","-0.9","-2.0",0.0,0.0,0,1024.6,0,0,"",92
"2021-04-22 05:51:00","-0.9","-2.0",0.0,0.0,0,1024.6,0,0,"",92
"2021-04-22 05:52:00","-0.9","-2.0",0.0,0.0,0,1024.6,0,1,"",92
"2021-04-22 05:53:00","-0.9","-2.0",0.0,0.0,0,1024.6,0,0,"",92
"2021-04-22 05:54:00","-0.9","-2.0",0.0,0.0,0,1024.6,0,0,"",92
"2021-04-22 05:55:00","-0.9","-2.0",0.0,0.0,0,1024.6,0,1,"",92
"2021-04-22 05:56:00","-0.9","-2.0",0.0,0.0,0,1024.6,1,1,"",92
"2021-04-22 05:57:00","-1.0","-2.1",0.0,0.0,0,1024.7,0,1,"",92
"2021-04-22 05:58:00","-1.0","-2.1",0.0,0.0,0,1024.7,0,1,"",92
"2021-04-22 05:59:00","-1.0","-2.1",0.0,0.0,0,1024.7,0,1,"",92
"2021-04-22 06:00:00","-1.1","-2.2",0.0,0.0,0,1024.7,0,1,"",92
"2021-04-22 06:01:00","-1.0","-2.1",0.0,0.0,0,1024.7,0,1,"",92
"2021-04-22 06:02:00","-1.0","-2.0",0.0,0.0,0,1024.7,0,1,"",93
"2021-04-22 06:03:00","-1.0","-2.1",0.0,0.0,0,1024.7,0,1,"",92
"2021-04-22 06:04:00","-1.0","-2.1",0.0,0.0,5,1024.7,0,1,"",92
"2021-04-22 06:05:00","-1.0","-2.1",0.0,0.0,5,1024.7,0,1,"",92
"2021-04-22 06:06:00","-1.1","-2.2",0.0,0.0,5,1024.7,0,1,"",92
"2021-04-22 06:07:00","-1.1","-2.2",0.0,0.0,5,1024.7,0,1,"",92
"2021-04-22 06:08:00","-1.0","-2.0",0.0,0.0,7,1024.7,0,1,"",93
"2021-04-22 06:09:00","-1.0","-2.0",0.0,0.0,7,1024.7,1,2,"",93
"2021-04-22 06:10:00","-1.0","-2.0",0.0,0.0,7,1024.7,0,1,"",93
"2021-04-22 06:11:00","-0.9","-1.9",0.0,0.0,7,1024.7,0,1,"",93
"2021-04-22 06:12:00","-1.0","-2.1",0.0,0.0,9,1024.7,0,0,"",92
"2021-04-22 06:13:00","-0.9","-1.9",0.0,0.0,9,1024.8,0,1,"",93
"2021-04-22 06:14:00","-1.0","-2.0",0.0,0.0,9,1024.7,0,1,"",93
"2021-04-22 06:15:00","-1.0","-2.1",0.0,0.0,9,1024.7,0,1,"",92
"2021-04-22 06:16:00","-1.0","-2.1",0.0,0.0,9,1024.7,0,1,"",92
"2021-04-22 06:17:00","-1.0","-2.1",0.0,0.0,9,1024.7,0,1,"",92
"2021-04-22 06:18:00","-1.0","-2.1",0.0,0.0,11,1024.7,1,1,"",92
"2021-04-22 06:19:00","-1.1","-2.2",0.0,0.0,12,1024.8,1,1,"",92
"2021-04-22 06:20:00","-1.0","-2.0",0.0,0.0,12,1024.8,1,1,"",93
"2021-04-22 06:21:00","-0.9","-1.9",0.0,0.0,12,1024.7,1,1,"",93
"2021-04-22 06:22:00","-0.9","-1.9",0.0,0.0,12,1024.8,1,1,"",93
"2021-04-22 06:23:00","-0.8","-1.9",0.0,0.0,12,1024.7,1,1,"",92
"2021-04-22 06:24:00","-0.8","-1.9",0.0,0.0,14,1024.8,1,2,"",92
"2021-04-22 06:25:00","-0.8","-1.9",0.0,0.0,14,1024.8,1,1,"",92
"2021-04-22 06:26:00","-0.9","-2.0",0.0,0.0,14,1024.8,0,1,"",92
"2021-04-22 06:27:00","-0.9","-2.0",0.0,0.0,14,1024.8,0,1,"",92
"2021-04-22 06:28:00","-0.9","-2.0",0.0,0.0,16,1024.8,0,1,"",92
"2021-04-22 06:29:00","-0.9","-2.0",0.0,0.0,16,1024.9,0,1,"",92
"2021-04-22 06:30:00","-1.0","-2.1",0.0,0.0,16,1024.8,0,1,"",92
"2021-04-22 06:31:00","-1.0","-2.1",0.0,0.0,16,1024.8,0,1,"",92
"2021-04-22 06:32:00","-1.0","-2.1",0.0,0.0,18,1024.8,1,1,"",92
"2021-04-22 06:33:00","-1.0","-2.1",0.0,0.0,18,1024.8,1,1,"",92
"2021-04-22 06:34:00","-1.0","-2.1",0.0,0.0,18,1024.8,1,1,"",92
"2021-04-22 06:35:00","-1.0","-2.0",0.0,0.0,18,1024.8,0,1,"",93
"2021-04-22 06:36:00","-1.0","-2.0",0.0,0.0,19,1024.9,0,1,"",93
"2021-04-22 06:37:00","-1.0","-2.0",0.0,0.0,19,1024.8,0,1,"",93
"2021-04-22 06:38:00","-1.0","-2.0",0.0,0.0,19,1024.9,0,1,"",93